Flag for United Kingdom Weather past 2 weeks in Newport, Wales, United Kingdom

Now
59 °F

Drizzle. Fog.


Feels Like: 57 °F
Forecast: 57 / 64 °F
Wind: 10 mph from West

Location: Bristol / Lulsgate

Current Time: Aug 28, 2014 at 4:44:18 AM

Latest Report: Aug 28, 2014 at 3:50 AM


Visibility: 2 mi

Pressure: 29.77 "Hg

Humidity: 94%

Dew point: 57 °F

Location of NewportLocation

Historic Weather in Newport — Graph

°F

Newport temperature yesterday

Maximum temperature yesterday: 63 °F (at 11:20 AM)
Minimum temperature yesterday: 48 °F (at 6:20 AM)
Average temperature yesterday: 57 °F

Past Weeks' High & Low Weather Summary

 TemperatureHumidityPressure
High64 °F (Aug 13, 1:50 PM)100% (Aug 14, 5:50 AM)30.18 "Hg (Aug 14, 5:50 AM)
Low45 °F (Aug 21, 2:20 AM)52% (Aug 16, 1:20 PM)29.53 "Hg (Aug 25, 6:20 PM)
Average56 °F81%29.91 "Hg
* Reported Aug 13 3:20 AM — Aug 28 3:20 AM, Newport, Weather by CustomWeather, © 2014

Note: Actual official high and low records may vary slightly from our data, if they occured in-between our weather recording intervals... More about our weather records

Advertising

Newport weather history for previous 24 hours

 ConditionsComfort  
Time TempWeatherWind HumidityBarometerVisibility
3:20 AM
Aug 28
59 °FPartly cloudy.12 mph100%29.77 "HgN/A
2:50 AM61 °FMostly cloudy.8 mph94%29.77 "HgN/A
2:20 AM61 °FMostly cloudy.7 mph94%29.77 "HgN/A
1:50 AM61 °FDrizzle. Fog.8 mph100%29.77 "HgN/A
1:20 AM61 °FDrizzle. Fog.10 mph100%29.77 "Hg1 mi
12:50 AM61 °FPassing clouds.10 mph94%29.77 "Hg3 mi
12:20 AM61 °FPassing clouds.12 mph94%29.77 "Hg4 mi
11:50 PM
Aug 27
59 °FPassing clouds.14 mph100%29.77 "Hg4 mi
11:20 PM59 °FDrizzle. Fog.14 mph100%29.77 "Hg2 mi
10:50 PM59 °FPassing clouds.15 mph94%29.77 "HgN/A
10:20 PM59 °FPassing clouds.15 mph94%29.80 "Hg6 mi
9:50 PM59 °FPassing clouds.15 mph94%29.80 "HgN/A
9:20 PM59 °FPassing clouds.15 mph94%29.80 "HgN/A
8:50 PM59 °FPartly sunny.16 mph94%29.80 "HgN/A
8:20 PM59 °FPartly sunny.17 mph88%29.80 "HgN/A
7:50 PM61 °FPartly sunny.16 mph88%29.80 "HgN/A
6:50 PM61 °FLight rain. Partly sunny.13 mph88%29.83 "HgN/A
6:20 PM63 °FPartly sunny.15 mph83%29.83 "HgN/A
5:20 PM61 °FBroken clouds.10 mph94%29.83 "HgN/A
4:50 PM61 °FDrizzle. Broken clouds.13 mph94%29.86 "Hg4 mi
3:20 PM61 °FPartly sunny.15 mph88%29.89 "Hg4 mi
2:50 PM63 °FPartly sunny.16 mph77%29.89 "HgN/A
2:20 PM63 °FPartly sunny.15 mph77%29.89 "HgN/A
1:50 PM63 °FPartly sunny.14 mph77%29.89 "HgN/A
1:20 PM63 °FPartly sunny.16 mph77%29.89 "HgN/A
12:50 PM63 °FPartly sunny.18 mph73%29.92 "HgN/A
12:20 PM63 °FScattered clouds.16 mph73%29.92 "HgN/A
11:20 AM63 °FPartly sunny.18 mph77%29.92 "Hg6 mi
10:50 AM61 °FPartly sunny.18 mph77%29.92 "Hg6 mi
10:20 AM59 °FPassing clouds.17 mph82%29.92 "HgN/A
9:20 AM55 °FPassing clouds.16 mph88%29.95 "HgN/A
8:50 AM54 °FPassing clouds.15 mph88%29.95 "HgN/A
8:20 AM54 °FPassing clouds.13 mph88%29.95 "HgN/A
7:50 AM52 °FPassing clouds.10 mph94%29.95 "HgN/A
7:20 AM50 °FPassing clouds.12 mph94%29.95 "HgN/A
6:50 AM48 °FPassing clouds.8 mph100%29.95 "HgN/A
6:20 AM48 °FPassing clouds.7 mph94%29.92 "HgN/A
5:50 AM50 °FPassing clouds.10 mph94%29.92 "HgN/A
5:20 AM50 °FPassing clouds.13 mph94%29.92 "HgN/A
4:50 AM52 °FOvercast.13 mph94%29.95 "HgN/A
4:20 AM52 °FOvercast.10 mph94%29.95 "HgN/A
Weather by CustomWeather, © 2014

See weather overviewHow to use our weather pages